Regional Weather Roundup
Issued by NWS

Home | Current Version | Previous Version | Graphics & Text | Print | Product List | Glossary On
Versions: 1 2 3 4 5 6 7 8 9 10 11 12 13 14 15 16 17 18 19 20 21 22 23 24 25 26 27 28 29 30 31 32 33 34 35 36 37 38 39 40 41 42 43 44 45 46 47 48 49 50
000
ASUS43 KLMK 171002
RWRKY
KENTUCKY REGIONAL WEATHER ROUNDUP
NATIONAL WEATHER SERVICE LOUISVILLE KY
600 AM EDT WED SEP 17 2014

NOTE "FAIR" INDICATES FEW OR NO CLOUDS BELOW 12,000 FEET
WITH NO SIGNIFICANT WEATHER AND/OR OBSTRUCTIONS TO VISIBILITY.

KYZ001>023-026-027-061>063-070>075-171100-
WESTERN AND SOUTH CENTRAL KENTUCKY

CITY           SKY/WX    TMP DP  RH WIND       PRES   REMARKS
PADUCAH        CLEAR     49  46  90 CALM      30.05F FOG
HENDERSON      CLOUDY    45  41  87 CALM      30.07S VSB 1/4
OWENSBORO      CLEAR     48  47  97 CALM      30.07S
HOPKINSVILLE   CLEAR     50  50 100 N2        30.05S
BOWLING GREEN  PTCLDY    50  49  96 CALM      30.06S FOG
GLASGOW        CLOUDY    52  52 100 E3        30.06S FOG
$$

KYZ024-025-028>034-038-045-046-053-171100-
NORTH CENTRAL KENTUCKY

CITY           SKY/WX    TMP DP  RH WIND       PRES   REMARKS
LOUISVILLE/SDF MOCLDY    54  51  90 CALM      30.06F
LOUISVILLE/LOU CLOUDY    53  50  89 CALM      30.07F
FORT KNOX      FOG       48  47  98 N5        30.05F VSB 1/2
$$

KYZ035>037-039>044-047>052-055>060-089>105-171100-
NORTHEAST KENTUCKY

CITY           SKY/WX    TMP DP  RH WIND       PRES   REMARKS
LEXINGTON      CLOUDY    55  50  83 E6        30.07F
COVINGTON      MOCLDY    49  47  93 CALM      30.07F FOG
FRANKFORT      FOG       46  46 100 NW3       30.06F VSB 1/4
$$

KYZ054-064>069-076>088-106>120-171100-
SOUTHEAST KENTUCKY

CITY           SKY/WX    TMP DP  RH WIND       PRES   REMARKS
JACKSON        CLOUDY    55  53  93 VRB3      30.06S
LONDON         CLOUDY    58  54  86 N5        30.06S
SOMERSET       NOT AVBL
MIDDLESBORO    CLOUDY    55  55  97 CALM      30.05S
MONTICELLO     CLOUDY    58  55  89 E6        30.07S
$$




USA.gov is the U.S. government's official web portal to all federal, state and local government web resources and services.